Location: Gleizolles
(44.4833°N, 6.7667°E)
Time: 11:47:18
(UTC+00:00)

Vanguard 2 - Pass Details

Date: 27 June 2024
Orbit: 552 x 2913 km, 32.9° (Epoch: 17 July)

Event Time Altitude Azimuth Distance (km) Brightness Sun altitude
Exits shadow 02:47:36 - 205° (SSW) 4,350 10.8 -9.3°
Reaches altitude 10° 02:48:11 10° 203° (SSW) 4,242 10.7 -9.3°
Maximum altitude 02:58:33 33° 146° (SE) 3,541 10.8 -8.0°
Drops below altitude 10° 03:12:19 10° 92° (E) 5,668 12.7 -6.2°
Sets 03:17:36 0° 84° (E) 6,759 13.4 -5.5°
